Regional Weather Roundup
Issued by NWS

Home | Current Version | Previous Version | Text Only | Print | Product List | Glossary On
Versions: 1 2 3 4 5 6 7 8 9 10 11 12 13 14 15 16 17 18 19 20 21 22 23 24 25 26 27 28 29 30 31 32 33 34 35 36 37 38 39 40 41 42 43 44 45 46 47 48 49 50
000
ASUS45 KPSR 230510
RWRAZ

ARIZONA HOURLY REGIONAL WEATHER ROUNDUP
NATIONAL WEATHER SERVICE PHOENIX AZ
1000 PM MST WED MAR 22 2017

NOTE: FAIR INDICATES FEW OR NO CLOUDS BELOW 12,000 FEET WITH NO
SIGNIFICANT WEATHER AND/OR OBSTRUCTIONS TO VISIBILITY.

AZZ001>003-036-230600-
NORTHWEST ARIZONA

CITY           SKY/WX    TMP DP  RH WIND       PRES   REMARKS
BULLHEAD CITY  MOCLDY    64  46  52 S5        29.81S
KINGMAN        CLOUDY    51  38  60 N8        29.88R
$$

AZZ004>008-015-016-018-230600-
NORTH CENTRAL ARIZONA

CITY           SKY/WX    TMP DP  RH WIND       PRES   REMARKS
GRAND CANYON   LGT SNOW  34  34 100 SW13G21   29.98R FOG     WCI  25
WILLIAMS       LGT SNOW  34  32  93 SW8G14    29.97F VSB 1   WCI  27
PRESCOTT       LGT RAIN  40  38  93 SW5       29.96F FOG
FLAGSTAFF      LGT SNOW  35  33  92 W7G20     29.96R FOG     WCI  29
PAYSON         MOCLDY    54  45  71 SW6       29.95S
PAGE           LGT RAIN  53  32  44 SW15G25   29.82R
$$

AZZ009>014-017-230600-
NORTHEAST ARIZONA

CITY           SKY/WX    TMP DP  RH WIND       PRES   REMARKS
WINSLOW        PTCLDY    55  30  38 S12       29.87F
SAINT JOHNS    CLEAR     52  26  36 S9        29.92S
WINDOW ROCK    PTCLDY    51  20  29 S8        29.95S
SHOW LOW       CLEAR     45  25  45 S7        29.98S
$$

AZZ023-230600-
GREATER PHOENIX AREA

CITY           SKY/WX    TMP DP  RH WIND       PRES   REMARKS
PHOENIX        MOCLDY    63  45  51 NW22G29   29.86R
BUCKEYE        MOCLDY    63  43  48 N9        29.86F
LUKE AFB       PTCLDY    62  46  56 NW10      29.85R
DEER VALLEY    MOCLDY    61  45  55 NW10      29.85S
SCOTTSDALE     PTCLDY    62  45  53 W9        29.87S
MESA-GATEWAY   PTCLDY    63  45  51 NW21G30   29.88R
$$

AZZ027-028-230600-
SOUTHWEST MARICOPA COUNTY AND PINAL COUNTY

CITY           SKY/WX    TMP DP  RH WIND       PRES   REMARKS
CASA GRANDE    NOT AVBL
GILA BEND      MOCLDY    64  46  52 SE5       29.87F
$$

AZZ503-504-507>509-230600-
SOUTHEAST ARIZONA

CITY           SKY/WX    TMP DP  RH WIND       PRES   REMARKS
TUCSON         CLEAR     71  39  31 S18G25    29.91R
DAVIS-MONTHAN  CLEAR     70  41  34 W12G17    29.91R
NOGALES        CLEAR     61  42  49 SE12      30.00R
SIERRA VISTA   CLEAR     65  31  28 SW24G31   29.99S
DOUGLAS        CLEAR     67  23  19 SW12      29.99R
SAFFORD        CLEAR     70  23  17 NW5       29.85S
$$

AZZ020-021-025-026-031-230600-
SOUTHWEST ARIZONA

CITY           SKY/WX    TMP DP  RH WIND       PRES   REMARKS
YUMA           CLOUDY    63  40  42 W15G24    29.88R
$$

CAZ031-033-041-043-047-048-061-230600-
SOUTHERN CALIFORNIA

CITY           SKY/WX    TMP DP  RH WIND       PRES   REMARKS
DOWNTOWN L.A.  CLEAR     59  52  77 CALM      29.97F
L.A. AIRPORT   PTCLDY    58  50  75 W21       29.99S
SAN DIEGO      MOCLDY    61  53  75 W10       30.05R
BURBANK        CLEAR     57  41  55 NW3       29.97R
ONTARIO        MOCLDY    55  49  80 W8        29.98F
RIVERSIDE      MOCLDY    56  49  77 SW9       29.99S
PALM SPRINGS   CLEAR     64  39  39 E9        29.90R
EL CENTRO NAS  PTCLDY    61  39  44 W17       29.93R
IMPERIAL       CLEAR     61  42  49 W17       29.90R
BLYTHE         PTCLDY    64  43  46 SW22G30   29.83R
NEEDLES        MOCLDY    67  35  30 NW8       29.83R
$$

NVZ020-UTZ003-230600-
SOUTHERN NEVADA-UTAH

CITY           SKY/WX    TMP DP  RH WIND       PRES   REMARKS
LAS VEGAS      MOCLDY    61  27  27 SW13G22   29.76R
SALT LAKE CITY CLOUDY    51  43  74 N10       29.72F
$$

NMZ009-TXZ055-230600-
NEW MEXICO-WEST TEXAS

CITY           SKY/WX    TMP DP  RH WIND       PRES   REMARKS
ALBUQUERQUE    CLOUDY    63  14  15 SE10      29.93F
EL PASO        PTCLDY    78  11   8 SW18G25   29.94R
$$


........................KEY........................
SKY/WX - SKY CONDITION/WEATHER
TMP    - TEMPERATURE IN FAHRENHEIT
DP     - DEW POINT IN FAHRENHEIT
RH     - RELATIVE HUMIDITY IN PERCENT
WIND   - DIRECTION AND SPEED IN MILES PER HOUR (MPH)
VRB    - VARIABLE WIND DIRECTION
PRES   - MEAN SEA LEVEL PRESSURE IN INCHES OF MERCURY
         F - FALLING PRESSURE   R - RISING PRESSURE
         S - STEADY PRESSURE
VSB    - VISIBILITY IN MILES
HX     - HEAT INDEX IN FAHRENHEIT
WCI    - WIND CHILL INDEX IN FAHRENHEIT
TC     - TEMPERATURE IN CELSIUS WHICH IS ALSO KNOWN AS
         TEMPERATURE IN CENTIGRADE
AFB    - AIR FORCE BASE
         LUKE AFB IS LUKE AIR FORCE BASE
         DAVIS-MONTHAN IS DAVIS-MONTHAN AIR FORCE BASE
NAS    - NAVAL AIR STATION
         EL CENTRO NAS IS EL CENTRO NAVAL AIR STATION
N/A    - NOT AVAILABLE




USA.gov is the U.S. government's official web portal to all federal, state and local government web resources and services.